Regional Weather Roundup
Issued by NWS Cleveland, OH

Home | Current Version | Previous Version | Graphics & Text | Print | Product List | Glossary On
Versions: 1 2 3 4 5 6 7 8 9 10 11 12 13 14 15 16 17 18 19 20 21 22 23 24 25 26 27 28 29 30 31 32 33 34 35 36 37 38 39 40 41 42 43 44 45 46 47 48 49 50
000
ASUS41 KCLE 251710
RWRCLE
OHIO REGIONAL WEATHER ROUNDUP
NATIONAL WEATHER SERVICE CLEVELAND, OH
100 PM EDT SAT OCT 25 2014

NOTE: "FAIR" INDICATES FEW OR NO CLOUDS BELOW 12,000 FEET WITH NO
SIGNIFICANT WEATHER AND/OR OBSTRUCTIONS TO VISIBILITY.

OHZ001>008-015>018-024>027-034-035-043-044-251800-
   NORTHWEST OHIO

CITY           SKY/WX    TMP DP  RH WIND       PRES   REMARKS
DEFIANCE       SUNNY     67  54  63 W9G18     29.87S
FINDLAY        SUNNY     69  54  58 W15G25    29.85F HAZE
TOLEDO EXPRESS PTSUNNY   63  53  70 W16G23    29.84F
TOLEDO EXEC    MOSUNNY   64  53  67 W17G23    29.84F
LIMA           SUNNY     68  55  63 W16       29.87F
$$

OHZ009>014-019>023-028>033-038-089-251800-
   NORTHEAST OHIO

CITY           SKY/WX    TMP DP  RH WIND       PRES   REMARKS
CLE-HOPKINS    MOSUNNY   66  53  63 SW17      29.82F
CLE-LAKEFRONT  SUNNY     65  53  65 SW17      29.79F
CUY CO. ARPT   PTSUNNY   66  54  63 SW18G25   29.80F
LORAIN-ELYRIA  SUNNY     66  52  60 W20       29.82F
ASHTABULA      CLOUDY    66  50  56 W22G30    29.78F
AKRON-CANTON   PTSUNNY   64  50  60 SW16G23   29.83F
WOOSTER        PTSUNNY   67  51  56 SW15G22   29.84F
MANSFIELD      SUNNY     65  52  62 SW16G23   29.85F
YOUNGSTOWN     PTSUNNY   64  49  57 SW20G25   29.81F
$$

OHZ042-051>053-060>062-070>072-077>081-251800-
  SOUTHWEST OHIO

CITY           SKY/WX    TMP DP  RH WIND       PRES   REMARKS
CINC-COVINGTON CLOUDY    66  55  67 SW8       29.97F
CINC-LUNKEN    PTSUNNY   66  55  67 SW8       29.97F
HAMILTON       CLOUDY    67  55  65 SW8       29.96F
DAYTON         MOSUNNY   68  57  68 SW15      29.93F
WRIGHT-PAT AFB SUNNY     65  54  68 SW14      29.92F
DAYTON GENERAL MOSUNNY   63  54  72 SW13      29.94F
WILMINGTON     LGT RAIN  63  52  67 SW14      29.94F
$$

OHZ036-037-039>041-045>050-054>059-063>069-073>076-082>088-251800-
  CENTRAL AND SOUTHEAST OHIO

CITY           SKY/WX    TMP DP  RH WIND       PRES   REMARKS
COLUMBUS       PTSUNNY   64  52  63 SW15      29.90F
OSU AIRPORT    MOSUNNY   67  53  61 SW13      29.90F
BOLTON FIELD   SUNNY     66  55  68 W10       29.91F
RICKENBACK AFB MOSUNNY   65  53  65 SW14G21   29.91F
NEWARK         MOSUNNY   65  51  60 SW15      29.90F
MARION         SUNNY     68  53  58 W14G22    29.87F
LANCASTER      PTSUNNY   64  52  64 SW14G23   29.93F
ZANESVILLE     MOSUNNY   64  50  60 SW13G20   29.91F HAZE
NEW PHILLY     MOSUNNY   66  51  58 W10G24    29.88F
$$



USA.gov is the U.S. government's official web portal to all federal, state and local government web resources and services.